DW6221 Weather Reports


Display with metric or nautical units.
time (UTC)temp
F
wind
direction
speed
MPH
gust
MPH
rain 1hr
in
rain 24hr
in
rain mn
in
humidity
%
barometer
mb
20260504214536 71 200 2.0 6.0 0.00 0.00 0.00 46 1010.2
20260504213031 71 185 0.0 5.0 0.00 0.00 0.00 44 1010.2
20260504211530 72 226 2.0 8.0 0.00 0.00 0.00 42 1010.2
20260504210029 72 219 1.0 7.0 0.00 0.00 0.00 40 1010.2
20260504204531 72 160 0.0 8.0 0.00 0.00 0.00 40 1010.3
20260504203025 72 126 2.0 5.0 0.00 0.00 0.00 42 1010.4
20260504201522 73 211 2.0 8.0 0.00 0.00 0.00 40 1010.5
20260504200020 72 277 0.0 8.0 0.00 0.00 0.00 39 1010.8
20260504194516 72 186 3.0 10.0 0.00 0.00 0.00 39 1011.0
20260504193014 73 198 2.0 7.0 0.00 0.00 0.00 39 1011.4
20260504191514 73 200 3.0 9.0 0.00 0.00 0.00 38 1011.5
20260504190007 73 210 2.0 7.0 0.00 0.00 0.00 40 1011.9
20260504184506 72 213 0.0 9.0 0.00 0.00 0.00 37 1012.1
20260504183003 72 298 4.0 8.0 0.00 0.00 0.00 37 1012.2
20260504181606 73 224 2.0 6.0 0.00 0.00 0.00 43 1012.3
20260504180056 71 247 0.0 8.0 0.00 0.00 0.00 42 1012.4
20260504174552 71 293 1.0 6.0 0.00 0.00 0.00 38 1012.6
20260504173049 69 229 1.0 9.0 0.00 0.00 0.00 37 1012.8
20260504171546 70 133 0.0 9.0 0.00 0.00 0.00 41 1013.0
20260504081528 35 139 0.0 0.0 0.00 0.00 0.00 92 1016.0
20260504044551 37 138 0.0 0.0 0.00 0.00 0.00 88 1016.4
20260504043057 36 138 0.0 0.0 0.00 0.00 0.00 88 1016.3
20260504041546 37 138 0.0 0.0 0.00 0.00 0.00 87 1016.3
20260504040043 38 138 0.0 0.0 0.00 0.00 0.00 85 1016.2
20260504034542 38 138 0.0 0.0 0.00 0.00 0.00 85 1016.1
20260504033040 39 138 0.0 0.0 0.00 0.00 0.00 82 1016.0
20260504031540 39 138 0.0 0.0 0.00 0.00 0.00 83 1015.8
20260504030038 40 138 0.0 0.0 0.00 0.00 0.00 79 1015.7
20260504024537 41 138 0.0 0.0 0.00 0.00 0.00 79 1015.8
20260504023039 41 138 0.0 0.0 0.00 0.00 0.00 77 1015.6
20260504021537 42 138 0.0 0.0 0.00 0.00 0.00 76 1015.6
20260504020053 43 138 0.0 0.0 0.00 0.00 0.00 73 1015.5
20260504014553 44 138 0.0 0.0 0.00 0.00 0.00 71 1015.5
20260504013044 45 138 0.0 0.0 0.00 0.00 0.00 72 1015.5
20260504011536 46 138 0.0 0.0 0.00 0.00 0.00 69 1015.1
20260504010039 47 138 0.0 0.0 0.00 0.00 0.00 65 1015.1
20260504004543 50 138 0.0 0.0 0.00 0.00 0.00 56 1014.9
20260504003034 51 138 0.0 0.0 0.00 0.00 0.00 59 1014.7
20260504001545 53 138 0.0 0.0 0.00 0.00 0.00 46 1014.7
20260504000032 54 138 0.0 0.0 0.00 0.00 0.00 44 1014.5
20260503234531 55 137 0.0 1.0 0.00 0.00 0.00 46 1014.4
20260503233038 56 134 0.0 0.0 0.00 0.00 0.00 40 1014.1
20260503231531 57 61 0.0 2.0 0.00 0.00 0.00 41 1014.0
20260503230029 57 325 0.0 7.0 0.00 0.00 0.00 38 1014.1
20260503224529 58 257 2.0 7.0 0.00 0.00 0.00 38 1014.3
20260503223029 58 70 0.0 5.0 0.00 0.00 0.00 39 1014.1
20260503221528 58 333 0.0 10.0 0.00 0.00 0.00 36 1014.0
20260503220040 58 10 1.0 8.0 0.00 0.00 0.00 36 1014.3